Orangeburg, SC

5:54 AM EST on December 14, 2017 (GMT -0500)
Orangeburg Municipal

Weather History for KOGB - January, 2014

Change the Weather History Date:

Saturday, January 18, 2014

  Actual Average Record
Temperature  
Mean Temperature 40 °F 46 °F  
Max Temperature 47 °F 56 °F 79 °F (2017)
Min Temperature 32 °F 35 °F 10 °F (1977)
Degree Days  
Heating Degree Days 25 19  
Month to date heating degree days 374 354  
Since 1 July heating degree days 1164 1258  
Cooling Degree Days 0 0  
Month to date cooling degree days 0 0  
Year to date cooling degree days 0 0  
Moisture  
Dew Point 15 °F    
Average Humidity 40    
Maximum Humidity 56    
Minimum Humidity 25    
Precipitation  
Precipitation 0.00 in 0.12 in 1.07 in (1960)
Month to date precipitation 1.75 2.15  
Year to date precipitation 1.75 2.15  
Sea Level Pressure  
Sea Level Pressure 30.09 in    
Wind  
Wind Speed 11 mph (West)    
Max Wind Speed 22 mph    
Max Gust Speed 30 mph    
Visibility 10 miles    
Events      
T = Trace of Precipitation, MM = Missing Value Source: NWS Daily Summary

Daily Weather History Graph

Daily Weather History Graph

Search for Another Location

Airport or City:

Trip Planner

Search our weather history database for the weather conditions in past years. The results will help you decide how hot, cold, wet, or windy it might be!

Date:

Astronomy

Jan. 18, 2014 Rise Set
Actual Time 7:26 AM EST 5:41 PM EST
Civil Twilight 6:59 AM EST 6:08 PM EST
Nautical Twilight 6:29 AM EST 6:38 PM EST
Astronomical Twilight 5:59 AM EST 7:08 PM EST
Moon 8:12 PM EST (1/18) 8:34 AM EST (1/18)
Length of Visible Light 11h 08m
Length of Day
10h 14m
Waning Gibbous, 94% of the Moon is Illuminated
Jan 18
Waning Gibbous
Jan 24
Last Quarter
Jan 30
New
Feb 6
First Quarter
Feb 14
Full

Hourly Weather History & Observations

Time (EST) Temp. Windchill Dew Point Humidity Pressure Visibility Wind Dir Wind Speed Gust Speed Precip Events Conditions
12:53 AM 44.1 °F 39.0 °F 19.0 °F 37% 29.98 in 10.0 mi WNW 9.2 mph - N/A   Clear
1:53 AM 42.1 °F 35.2 °F 18.0 °F 38% 30.00 in 10.0 mi WNW 12.7 mph - N/A   Clear
2:53 AM 39.0 °F 31.8 °F 18.0 °F 43% 30.02 in 10.0 mi WNW 11.5 mph - N/A   Clear
3:53 AM 37.9 °F 29.6 °F 18.0 °F 45% 30.04 in 10.0 mi WNW 13.8 mph - N/A   Clear
4:53 AM 36.0 °F 25.6 °F 14.0 °F 41% 30.05 in 10.0 mi West 18.4 mph 27.6 mph N/A   Clear
5:53 AM 34.0 °F 26.6 °F 12.9 °F 42% 30.06 in 10.0 mi West 9.2 mph - N/A   Clear
6:53 AM 32.0 °F 22.5 °F 12.9 °F 45% 30.09 in 10.0 mi West 12.7 mph - N/A   Clear
7:53 AM 32.0 °F 23.6 °F 12.9 °F 45% 30.12 in 10.0 mi West 10.4 mph - N/A   Clear
8:53 AM 34.0 °F 25.0 °F 14.0 °F 44% 30.14 in 10.0 mi West 12.7 mph 21.9 mph N/A   Clear
9:53 AM 35.1 °F 24.8 °F 12.9 °F 40% 30.16 in 10.0 mi WNW 17.3 mph 26.5 mph N/A   Clear
10:53 AM 37.9 °F 28.9 °F 12.9 °F 36% 30.16 in 10.0 mi WNW 16.1 mph 21.9 mph N/A   Clear
11:53 AM 39.9 °F 32.5 °F 12.9 °F 33% 30.14 in 10.0 mi WNW 12.7 mph 21.9 mph N/A   Clear
12:53 PM 42.1 °F 34.9 °F 12.9 °F 31% 30.11 in 10.0 mi West 13.8 mph 26.5 mph N/A   Clear
1:53 PM 45.0 °F 37.9 °F 14.0 °F 29% 30.08 in 10.0 mi West 16.1 mph - N/A   Clear
2:53 PM 46.0 °F 39.0 °F 12.0 °F 25% 30.08 in 10.0 mi West 17.3 mph - N/A   Clear
3:53 PM 46.0 °F 39.9 °F 12.9 °F 26% 30.08 in 10.0 mi West 13.8 mph - N/A   Clear
4:53 PM 45.0 °F 39.3 °F 12.0 °F 26% 30.08 in 10.0 mi WNW 11.5 mph - N/A   Clear
5:53 PM 42.1 °F 37.1 °F 14.0 °F 32% 30.09 in 10.0 mi West 8.1 mph - N/A   Clear
6:53 PM 39.0 °F 33.4 °F 17.1 °F 41% 30.10 in 10.0 mi WSW 8.1 mph - N/A   Clear
7:53 PM 37.0 °F 33.3 °F 16.0 °F 42% 30.11 in 10.0 mi SW 4.6 mph - N/A   Clear
8:53 PM 35.1 °F 30.1 °F 18.0 °F 50% 30.10 in 10.0 mi SSW 5.8 mph - N/A   Clear
9:53 PM 35.1 °F 31.0 °F 18.0 °F 50% 30.09 in 10.0 mi South 4.6 mph - N/A   Clear
10:53 PM 34.0 °F 28.8 °F 19.0 °F 54% 30.09 in 10.0 mi SSW 5.8 mph - N/A   Clear
11:53 PM 34.0 °F 31.0 °F 19.0 °F 54% 30.09 in 10.0 mi WNW 3.5 mph - N/A   Clear